ATLAS 5 CENTAUR DEB, 44666

Orbit data source: Space-Track

ATLAS 5 CENTAUR DEB, 44666 is space debris in HEO originally from a launch on Wed, 17 Oct 2018 UTC launched from the Air Force Eastern Test Range (AFETR). Debris objects in space refer to the collection of defunct objects orbiting the Earth. Examples of debris include non-operational satellites, rocket bodies, and fragments generated from explosions, collisions, or faulty payload assembly.

Loading next visibility...
ATLAS 5 CENTAUR DEB details
Identifier
44666, 2018-079AC
Orbit
HEO
Last TLE update1 day ago
Origin
Flag of USULA (US)
ManufacturerULA Decatur
MissionSpacecraft
Bus & MotorUnknown
MassUnknown
Launch date (UTC)
2018-10-17 (6 years ago)
Launch vehicleUnknown
Launch site
Air Force Eastern Test Range (AFETR)
Object type
Payload
Rocket body
Debris
Shape & HBRUnknown
Radar Cross SectionRCS unknown

Expand to show TLE details & history

TLE from 1 day ago
0 ATLAS 5 CENTAUR DEB
1 44666U 18079AC  24360.21314871 -.00000103  00000-0  00000-0 0  9998
2 44666  12.4326  79.3539 4466910 238.7444  69.8488  1.90677111 38742
Epoch: 2024-12-25T05:06Z
Definitive object data (Epoch: 2024-12-25T05:06:56.048Z)
Latitude0.00001°
Longitude-91.64278°
Altitude22,263.899 km
Speed3.65 km/s
True Right ascension05h 17m 12s
True Declination0° 00' 00"
Sunlit
Object was in daylight at TLE epoch
Visualization TLE readout
Latitude12.18879°
Longitude-13.72421°
Altitude31,615.876 km
Speed2.544 km/s
Apparent Right ascension10h 23m 53s
Apparent Declination6° 57' 32"
Sunlit
Object is in daylight
Visualization observer readout
Local Sidereal Time11:01:53
Azimuth197.018° SSW
Elevation55.959°
Doppler factor1
Orbital elements
Apogee altitude33,366.492 km
Perigee altitude8,822.801 km
Semi-major axis27,472.783 km
Eccentricity0.446691
Inclination12.4326°
RAAN79.3539°
Arg. of periapsis238.7444°
True anomaly121.20528°
Mean anomaly69.8488°
Eccentric anomaly95.33158°
Mean motion0.47664 °/min
BSTARUnknown
Orbital period755.29 mins
Loading maneuver chart data...

ATLAS 5 CENTAUR DEB Visibility forecast

Observer location: undefined°, undefined

Span
Click to sort rows by Start time (UTC) header in descending order
Start Az.
Max El. time (UTC)
Max El. Az.
Max El.
End time (UTC)
End Az.
249 mins2024-12-26 11:40:30.061Z197.009° SSW2024-12-26 11:41:30.061Z197.058° SSW39.64°2024-12-26 15:49:30.061Z126.404° SE
324 mins2024-12-27 06:16:30.061Z230.161° WSW2024-12-27 11:07:30.061Z220.822° SW36.622°2024-12-27 11:40:30.061Z223.558° SW
|